星链-5082 (STARLINK-5082 )

导读

STARLINK-5082是美国星链(Starlink)星座中的一颗卫星,于北京时间2022年12月28日发射入轨,属于SpaceX公司打造的低轨互联网卫星星座组网卫星。星链计划旨在构建全球覆盖的卫星互联网,该卫星承担着为地面用户提供宽带互联网接入服务的任务,服务包含偏远地区网络覆盖、高空移动终端联网等场景。

基本信息
目录编号:
54845
目录名称:
STARLINK-5082
国际标识:
2022-177AB
轨道中心:
EARTH
卫星名称:
星链-5082
卫星全名:
星链-5082 (STARLINK-5082 )
卫星状态:
在轨 (已飞行1346 天)
发射日期:
2022-12-28 UTC
国别 :
美国 (US)
星等 :
--
轨道信息
数据来源 国际轨道数据 AOE轨道数据
星历时间 2026-09-04T14:24:57+0800
5小时前
查看轨道信息
2026-09-03T23:00:00+0800
21小时前
查看轨道信息
半长轴 6861.214km 6861.172km
偏心率 0.000085 0.0000051
轨道倾角 43.004° 43.001°
近地点辐角 274.243° 289.229°
升交点赤经 204.209° 207.843°
平近点角 85.832° 134.377°
近地点 482.493km 483km
远地点 483.661km 483.07km
周期 94.267分钟 94.266分钟
每日圈数 15.275708 15.275849
详细信息
固有亮度:
5
最大亮度:
2.5
卫星平台:
Starlink v1.5
覆盖范围:
全球
运营商:
太空探索技术公司
运营商所在国:
美国
制造商(研发单位):
太空探索技术公司
制造商所在国:
美国
使用方式:
暂无
卫星简介
星链(Starlink)计划是由太空探索技术公司(SpaceX)提出的一个巨型低轨卫星互联网星座项目,计划在2019年至2024年间在太空搭建由约1.2万颗卫星组成的“星链”网络,其中1584颗将部署在地球上空550千米处的近地轨道,并从2020年开始工作。该卫星仍在工作。
2D轨道图
3D轨道图
轨道高度分析图
轨道倾角分析图
轨道综合分析图
查看轨道综合分析图
交会数据列表
事件ID 空间交会对象 最接近时刻(TCA) 交会距离 交会风险概率(CRP) 交会风险指数(CRI) 操作
CDM_260904-012405-484506-795622
2026-09-04T
01:24:44+0000
0.526 km
远距离
9.477731E-5 中风险 0.75
CDM_260905-104505-484506-657221
2026-09-05T
10:45:51+0000
0.696 km
远距离
6.652869E-5 中风险 0.71
CDM_260904-100205-484506-795621
2026-09-04T
10:02:35+0000
0.912 km
远距离
1.746009E-5 中风险 0.6
CDM_260905-091105-484506-657221
2026-09-05T
09:11:42+0000
1.809 km
极远距离
2.904585E-6 低风险 0.44
CDM_260905-122005-484506-657221
2026-09-05T
12:20:01+0000
2.025 km
极远距离
2.158742E-6 低风险 0.42
CDM_260903-235005-484506-795622
2026-09-03T
23:50:34+0000
1.802 km
极远距离
1.913608E-6 低风险 0.41
CDM_260905-024305-484506-453121
OBJECT D (64531)
2026-09-05T
02:43:04+0000
2.438 km
极远距离
1.797998E-6 低风险 0.4
CDM_260904-113605-484506-795622
2026-09-04T
11:36:44+0000
2.404 km
极远距离
1.005524E-6 低风险 0.35
CDM_260904-025805-484506-795622
2026-09-04T
02:58:53+0000
2.708 km
极远距离
8.339166E-7 极低风险 0.33
CDM_260904-082805-484506-795621
2026-09-04T
08:28:25+0000
2.974 km
极远距离
7.432138E-7 极低风险 0.32